Theta_e
286 286 285 284 284 283 282 281 280 279 278 277 277 276 276 276 276 275 275 275 275 275 275 275 275 276 275 275 275 275 275 275 271 274 276 277 276 276 276 277 277 277 278
287 285 284 282 281 281 280 279 278 278 277 277 276 276 276 275 275 274 274 274 274 274 274 274 273 274 273 273 273 273 273 273 272 270 273 273 273 275 275 275 276 277 277
286 283 283 281 280 280 279 277 277 276 276 276 275 275 274 274 274 274 274 273 273 273 273 272 272 272 272 272 273 273 273 274 273 271 271 273 274 274 274 274 275 275 277
285 283 282 281 280 279 278 277 277 276 275 275 274 273 273 273 273 273 273 272 272 272 272 272 273 273 273 273 273 273 273 272 272 272 271 272 273 275 275 273 272 274 274
284 283 282 281 280 278 276 276 276 275 274 274 273 273 273 273 273 272 272 272 272 272 273 274 274 274 276 276 275 274 274 273 273 272 272 273 273 273 273 274 273 274 274
284 283 282 279 278 276 276 276 275 274 273 273 273 272 271 272 275 277 275 273 273 273 273 274 274 273 274 277 278 279 278 275 273 273 273 272 273 273 274 273 272 272 270
284 282 279 277 276 276 276 275 274 273 273 273 272 272 272 272 277 278 278 276 275 274 273 273 273 274 274 275 277 278 278 278 279 276 273 273 273 274 274 273 273 272 272
282 280 278 277 276 275 275 274 273 273 272 272 272 271 272 272 276 277 277 275 274 274 274 274 273 274 275 275 274 274 275 275 275 276 275 275 275 276 275 275 274 273 274
280 278 277 276 276 274 273 273 272 272 271 272 272 271 271 271 276 276 276 274 274 274 274 275 274 274 275 277 275 273 273 273 277 278 278 279 280 280 280 277 274 273 271
279 278 277 277 275 274 273 272 272 271 271 271 270 270 270 268 274 275 276 273 269 272 274 275 275 274 276 277 275 273 270 271 272 273 275 274 274 274 277 277 275 271 271
276 276 275 275 274 274 272 272 271 271 271 270 269 269 268 268 270 275 277 274 272 271 273 271 272 274 276 277 277 273 270 274 273 269 268 269 270 271 274 276 275 274 272
274 273 273 274 273 272 270 269 270 270 269 268 267 268 269 270 272 275 276 276 276 268 269 271 271 275 275 275 273 274 275 274 267 266 266 267 268 269 271 273 275 276 277
273 272 272 272 271 270 269 268 268 268 268 267 267 268 269 271 271 274 274 274 274 273 271 272 273 272 272 270 271 272 270 267 266 265 265 267 269 270 271 271 272 274 275
271 271 270 270 269 269 269 268 268 267 267 268 268 268 268 268 269 269 270 270 272 271 270 266 268 268 269 269 267 268 267 267 266 266 266 268 269 269 269 270 270 271 270
272 269 268 269 268 268 269 268 268 269 270 269 270 269 267 266 268 270 271 269 267 270 261 260 260 263 263 264 264 265 266 266 266 267 266 266 268 268 268 269 270 269 267
270 269 269 268 267 267 267 267 272 272 274 274 273 270 269 271 274 274 273 272 271 270 256 253 258 260 261 262 262 263 264 265 265 266 265 267 267 267 268 268 268 266 265
271 269 268 267 267 267 267 267 267 272 275 275 274 273 272 273 274 273 272 269 269 263 252 251 256 258 259 261 261 262 262 264 265 265 265 267 268 268 266 265 265 266 265
271 269 268 267 267 267 267 267 268 269 268 269 274 273 273 273 273 272 269 263 256 255 248 249 251 255 258 259 260 260 261 262 263 264 264 267 268 267 265 264 264 264 264
270 268 267 267 268 267 267 268 268 268 267 266 267 269 270 272 272 270 264 256 254 249 247 247 250 254 256 257 258 260 260 261 262 263 264 267 267 266 265 264 265 264 264
270 269 268 267 266 266 266 265 264 264 263 263 263 260 259 260 257 255 254 251 250 248 248 248 251 251 253 255 257 258 260 260 261 263 264 267 267 266 265 264 264 263 263
268 267 267 266 266 266 265 264 263 262 261 261 260 259 262 258 255 253 253 249 247 246 246 246 249 248 252 254 256 257 258 260 262 264 264 267 266 265 265 265 264 264 264
266 266 265 264 264 264 263 263 262 261 260 259 258 260 266 255 253 252 247 247 247 247 245 246 247 247 251 253 255 256 258 259 262 264 266 266 265 265 265 264 264 264 263
264 264 263 262 262 261 261 261 260 259 258 258 258 256 255 253 251 249 248 247 246 244 243 245 246 247 250 253 255 256 257 259 262 264 267 265 265 264 264 263 263 263 262
263 262 261 260 261 260 260 259 258 258 257 256 256 254 254 251 250 249 247 245 242 243 244 246 246 246 250 252 254 256 258 261 264 268 267 265 264 264 264 263 263 263 262
261 260 260 259 259 259 258 258 257 256 256 255 254 254 252 252 250 248 247 244 243 243 246 246 245 247 249 251 252 254 258 261 265 269 267 265 264 264 263 263 263 263 262
260 259 259 259 258 258 257 256 256 256 255 254 254 253 252 252 251 249 247 245 246 246 247 246 246 248 249 252 253 258 261 266 270 269 266 265 264 263 263 263 263 262 262
Wind_Speed
15 16 16 15 14 11 12 11 11 10 11 11 10 9 9 8 7 6 5 4 5 4 5 5 6 4 3 4 5 6 7 8 16 28 14 14 16 18 14 14 15 16 17
17 14 14 11 11 13 12 11 10 12 10 11 11 10 9 9 8 6 5 4 4 5 5 5 5 5 6 7 6 9 9 10 13 25 23 17 19 17 17 19 15 15 17
14 14 13 13 14 15 13 12 12 12 11 10 10 10 8 7 7 6 6 6 5 6 6 6 6 6 9 7 8 10 9 10 11 15 23 17 18 16 17 17 17 19 16
16 17 17 17 16 14 13 14 14 12 13 11 9 8 8 7 7 6 6 5 5 5 6 6 7 8 11 11 10 12 12 12 13 14 17 20 16 17 16 16 16 14 16
17 18 18 16 15 14 15 15 13 13 10 9 9 8 7 7 6 7 6 6 6 6 7 8 9 10 19 19 11 12 13 12 11 13 16 16 17 15 17 14 15 18 16
18 19 16 16 16 16 16 15 14 13 12 12 10 9 9 6 13 14 10 8 8 8 7 8 9 11 15 22 24 27 24 17 17 15 15 17 23 18 17 17 17 18 22
16 15 16 16 16 16 15 16 16 16 13 12 11 11 10 9 16 15 14 7 7 6 8 9 10 9 13 14 20 26 25 28 31 22 23 20 23 20 20 22 20 20 21
14 14 15 17 17 16 15 15 14 13 14 13 12 12 10 9 15 13 12 6 6 8 9 10 11 12 12 15 16 16 17 17 19 16 19 22 21 21 22 21 23 24 23
15 16 16 17 17 17 17 16 13 13 11 11 11 11 11 9 18 15 12 6 7 8 8 8 10 11 17 23 17 16 18 19 18 28 34 37 38 40 34 19 17 16 18
14 13 13 15 16 17 17 16 13 12 11 8 9 8 9 7 14 16 13 5 5 5 6 8 10 13 21 23 16 15 17 18 19 18 17 17 23 25 37 23 16 16 17
8 11 12 13 16 15 15 13 14 13 13 12 11 9 8 8 9 14 13 5 5 4 3 4 6 18 21 25 25 11 15 22 20 16 16 14 15 16 14 13 16 17 16
7 10 11 12 10 11 14 12 13 13 13 12 11 9 8 10 13 13 11 8 6 4 2 4 8 19 23 22 18 22 26 24 11 13 14 14 14 14 13 15 18 17 18
8 9 10 12 11 12 14 14 12 12 12 12 11 9 9 9 6 14 10 8 3 2 1 8 15 17 18 14 19 22 17 10 11 12 14 14 14 15 19 17 18 20 21
12 10 9 11 11 13 9 10 10 11 10 9 10 9 8 7 5 4 4 3 4 2 2 4 8 11 12 12 10 11 9 10 12 13 13 15 15 15 14 14 15 13 15
13 14 15 13 14 11 9 11 11 10 11 12 10 10 12 9 6 9 8 5 4 2 2 1 3 5 6 7 7 9 9 10 11 12 13 15 15 15 15 14 14 13 16
12 11 12 10 10 14 14 12 18 16 18 13 14 12 8 14 15 11 6 7 2 6 3 1 3 5 6 8 8 10 10 12 12 13 14 15 16 15 15 14 14 13 14
15 13 10 12 13 13 12 13 16 18 24 23 22 18 14 13 14 11 8 8 6 5 1 0 3 5 7 7 8 9 11 12 15 13 15 15 16 15 18 14 14 14 14
15 18 13 12 12 12 12 12 12 15 15 13 21 19 18 15 14 11 10 7 3 3 1 0 3 5 7 7 8 10 11 12 12 14 15 16 16 15 15 15 14 15 14
15 12 13 12 12 13 13 13 12 10 10 11 9 14 10 16 14 12 7 3 2 1 1 1 2 6 6 7 9 9 11 12 14 14 14 16 17 16 16 15 15 19 19
13 16 15 12 12 13 12 11 12 11 10 10 8 8 5 4 3 2 2 2 2 2 3 2 5 6 4 7 9 9 10 12 13 14 15 15 17 16 16 17 15 16 14
9 11 14 12 13 12 11 12 11 11 10 9 7 7 13 5 6 3 3 2 2 3 2 3 6 4 4 7 8 8 10 12 13 14 14 17 18 17 16 15 16 15 15
10 12 12 12 12 12 11 11 11 11 10 10 8 5 17 4 4 4 2 2 3 3 4 4 6 3 5 7 9 9 10 13 13 14 15 18 18 18 17 17 16 16 15
12 13 12 11 11 16 12 11 11 10 10 10 7 6 6 4 4 3 2 2 3 4 3 4 6 4 3 7 8 8 10 13 14 15 16 18 18 18 18 18 17 17 16
11 12 12 12 12 12 11 11 10 12 11 9 7 6 5 4 4 3 2 3 4 4 2 5 6 4 6 9 9 9 10 13 13 12 19 17 17 20 18 18 18 22 17
10 10 11 12 12 11 12 11 10 10 9 8 7 6 4 4 4 2 4 3 3 3 5 6 5 4 9 13 14 16 18 25 22 13 13 17 21 24 20 18 21 19 20
10 11 10 10 11 10 10 10 10 9 8 6 5 4 5 4 3 4 2 2 3 4 6 6 4 8 12 11 13 17 21 25 20 17 13 14 17 18 19 21 27 19 22
Wind_Direction
200 199 197 195 191 178 187 186 174 156 157 157 159 159 165 160 162 164 173 187 204 211 221 226 242 253 261 264 256 253 253 253 265 288 286 296 292 293 296 290 285 283 282
201 198 199 180 176 182 185 173 159 162 162 161 161 161 167 168 168 163 172 194 201 220 235 248 254 274 265 255 256 255 249 248 258 275 290 296 287 293 291 287 283 278 278
190 185 187 185 183 188 180 166 163 158 161 166 161 166 173 159 153 163 169 180 203 230 244 253 262 264 267 263 255 259 255 250 254 265 283 286 288 293 287 280 280 279 274
188 187 188 189 187 181 172 165 164 166 163 168 169 153 152 156 159 175 190 185 206 229 238 245 259 261 267 270 266 264 262 259 255 257 267 280 278 282 279 286 281 270 278
190 192 194 183 179 169 169 166 164 165 164 157 152 147 152 156 171 180 190 199 214 238 249 253 260 261 270 271 270 268 266 265 263 265 267 272 277 280 280 285 281 290 274
193 195 183 173 172 172 171 165 162 158 158 157 162 159 163 175 194 199 190 197 212 241 262 268 268 269 264 275 280 283 281 282 275 271 277 276 279 278 276 276 278 280 283
192 185 175 168 170 178 170 168 170 164 158 168 165 166 174 184 198 201 209 207 218 240 259 272 275 272 273 276 278 285 288 283 278 282 282 280 285 285 283 279 274 273 274
182 177 171 168 173 171 169 171 167 163 162 168 175 170 174 183 194 204 213 212 226 245 256 266 270 277 279 292 290 283 280 277 276 271 268 274 271 274 266 265 266 265 268
185 179 175 173 170 168 171 169 167 162 163 172 176 168 170 177 190 193 203 208 225 248 257 266 270 282 292 294 295 296 297 289 285 291 289 286 286 288 284 284 271 263 268
186 180 172 171 170 172 168 166 165 164 162 164 168 164 174 175 194 200 200 184 201 230 251 263 275 285 298 298 304 303 303 306 301 300 301 302 294 284 280 273 275 269 272
146 150 163 171 172 170 160 165 161 158 155 164 164 162 170 176 205 200 211 195 189 195 225 276 286 294 298 312 308 311 300 303 315 317 300 297 294 288 289 271 253 253 259
143 156 165 168 165 158 159 152 163 159 161 162 159 162 183 180 189 201 212 230 243 132 235 291 281 301 316 312 317 309 312 319 310 303 298 293 297 295 291 295 288 280 258
156 165 166 157 157 163 161 165 159 168 172 166 169 171 171 176 183 179 200 230 284 282 270 288 323 317 320 316 309 317 321 306 300 300 297 294 298 298 293 289 283 277 274
163 163 163 169 166 160 164 171 169 174 179 170 169 163 157 154 170 184 188 224 260 272 324 322 329 326 313 310 307 314 304 299 299 293 298 297 296 298 295 293 290 286 288
178 166 174 176 173 174 180 173 172 184 191 173 176 163 151 162 181 195 196 185 191 210 96 15 338 310 322 321 315 313 305 302 297 297 303 295 297 299 296 292 286 291 282
189 178 175 176 201 173 166 166 183 169 178 179 165 141 136 150 174 167 169 113 130 64 55 36 311 307 319 312 318 313 309 302 306 304 304 293 304 302 300 301 291 284 282
195 181 178 173 176 189 180 173 157 163 159 155 153 150 156 157 155 156 133 115 110 87 124 103 289 305 300 305 309 306 307 308 311 302 304 297 304 306 308 301 294 289 284
202 178 173 177 173 179 185 166 164 156 152 152 159 150 159 162 155 148 135 112 63 4 200 156 272 290 287 302 302 300 304 303 308 304 305 301 311 310 307 301 295 291 287
192 182 171 168 169 175 170 156 151 155 148 136 134 142 151 163 155 137 114 106 167 248 272 266 237 266 280 301 293 294 299 302 306 302 307 302 316 313 307 301 296 296 289
188 173 167 158 161 160 161 145 137 145 142 140 153 136 122 93 103 182 97 121 194 232 247 265 277 258 286 289 287 294 309 307 308 306 310 311 317 313 309 306 304 300 291
167 159 155 155 156 158 151 143 144 140 141 149 138 137 155 145 162 148 143 200 226 253 270 251 265 259 284 285 288 303 309 305 304 307 303 322 320 316 314 309 306 298 294
150 150 152 147 142 146 140 137 135 134 137 138 132 174 150 146 134 142 141 248 260 262 247 262 267 247 273 286 297 303 305 304 307 313 308 326 321 319 317 316 311 308 304
140 142 137 138 136 127 122 124 127 128 131 130 133 122 140 132 145 137 171 263 267 264 263 259 268 275 278 293 296 289 296 297 305 309 322 325 324 323 323 321 319 318 314
131 134 132 129 126 123 124 124 123 125 128 133 138 144 135 154 137 110 239 255 272 286 304 270 258 262 297 299 300 297 293 294 305 307 334 327 325 326 325 325 326 326 318
116 121 122 121 124 121 122 121 121 123 127 136 139 141 146 117 106 169 237 250 279 294 291 275 268 297 292 297 293 296 299 303 309 336 336 331 331 332 332 329 332 330 330
107 106 108 110 109 115 116 120 120 123 126 126 135 122 112 120 166 218 238 274 279 289 292 274 295 302 297 296 293 304 307 311 320 356 339 335 339 338 338 335 338 339 337